Other Public Products
Issued by NWS Grand Forks, ND

Home | Current Version | Previous Version | Text Only | Print | Product List | Glossary Off
Versions: 1 2 3 4 5 6 7 8 9 10 11 12 13 14 15 16 17 18 19 20 21 22 23 24 25 26 27 28 29 30 31 32 33 34 35 36 37 38 39 40 41 42 43 44 45 46 47 48 49 50

000
FPUS83 KFGF 201910
OPUFGF
PRAIRIE TO PINES WEATHER ROUNDUP
NATIONAL WEATHER SERVICE EASTERN NORTH DAKOTA/GRAND FORKS ND
100 PM CST MON FEB 20 2017

 **SATELLITE DATA USED TO AUGMENT SKY COVER AT AUTOMATED STATIONS**
 *****  WEATHER ACROSS EASTERN NORTH DAKOTA  *****

CITY           SKY/WX    TMP DP  RH WIND       PRES   REMARKS
GRAND FORKS    LGT RAIN  37  33  85 NW13      29.59F FOG
GRAND FORKS AF LGT RAIN  37  37 100 NW9       29.62R
GRAND CITY NWS NOT AVBL
BUXTON         NOT AVBL
DEVILS LAKE    LGT RAIN  34  34 100 W13       29.64F WCI  25
FARGO          CLOUDY    42  41  96 NW14      29.60F FOG
WAHPETON ARPT  CLOUDY    48  46  93 S5        29.60F
$$

 *****  WEATHER ACROSS CENTRAL AND WESTERN NORTH DAKOTA  *****

CITY           SKY/WX    TMP DP  RH WIND       PRES   REMARKS
JAMESTOWN      LGT RAIN  35  34  96 NW13      29.65F FOG
BISMARCK       FAIR      46  37  71 NW13      29.72S
MINOT          FAIR      45  37  73 W13       29.67F
MINOT AFB      FAIR      41  37  83 W8        29.66F
GARRISON         N/A     43  36  76 NW13      29.69F
WILLISTON      FAIR      43  32  65 W14       29.72S
DICKINSON      FAIR      51  31  46 W15       29.73S
HETTINGER      FAIR      52  34  50 NW16      29.77F
$$

 *****  OTHER OBSERVATIONS NORTHEAST NORTH DAKOTA  *****

CITY           SKY/WX    TMP DP  RH WIND       PRES   REMARKS
WALHALLA       NOT AVBL
LANGDON        NOT AVBL
CAVALIER       CLOUDY    37  36  93 NW14      29.60F
GRAFTON        DRIZZLE   36  36 100 NW8       29.62F
CANDO          NOT AVBL
FORT TOTTEN      N/A     35  35 100 NW7       29.95S
ROLLA          FAIR      36  36 100 W12       29.64F
RUGBY            N/A     32  32 100 NW8       29.66F FOG     WCI  25
 ***** THE ABOVE OBSERVATIONS ARE NON NWS ARE NOT QUALITY
        CONTROLLED AND MAY MIS-REPORT RAIN FOR SNOW...
$$

 *****  OTHER OBSERVATIONS SOUTHEAST NORTH DAKOTA *****

CITY           SKY/WX    TMP DP  RH WIND       PRES   REMARKS
COOPERSTOWN    CLOUDY    34  34 100 NW14G20   29.63F FOG     WCI  24
VALLEY CITY    FLURRIES  36  36 100 NW18G25   29.65R
OAKES          NOT AVBL
GWINNER        CLOUDY    41  39  93 NW17      29.64S
SHEYENNE NWR     N/A     39  37  93 NW9       29.95S
BUFFALO        NOT AVBL
WYNDMERE       NOT AVBL
 ***** THE ABOVE OBSERVATIONS ARE NON NWS ARE NOT QUALITY
       CONTROLLED AND MAY MIS-REPORT RAIN FOR SNOW...
$$

  *****  WEATHER ACROSS NORTHERN MINNESOTA  *****

CITY           SKY/WX    TMP DP  RH WIND       PRES   REMARKS
FLAG ISLAND    RAIN      37  37 100 SE6       29.58F VSB 1
WARROAD        LGT RAIN  41  37  87 S9        29.58F VSB 3/4
ROSEAU         RAIN      43  37  81 W3        29.57F VSB 3/4
HALLOCK        DRIZZLE   36  34  93 NW8       29.61R
THF RVR FALLS  LGT RAIN  41  41 100 W13       29.58S VSB<1/4
HALSTAD          N/A     39  39 100 NW13        N/A
FOSSTON        RAIN      45  43  93 E5        29.58F
BAUDETTE       LGT RAIN  41  40  96 SE10      29.59F FOG
WASKISH        LGT RAIN  45  43  93 SE8       29.61F
CROOKSTON      MIX PCPN  37  36  93 W10       29.60F VSB<1/4
$$
  *****  WEATHER ACROSS CENTRAL AND WEST MINNESOTA  *****

CITY           SKY/WX    TMP DP  RH WIND       PRES   REMARKS
BEMIDJI        LGT RAIN  41  41  99 SE8       29.58F
PARK RAPIDS    FOG       45  42  89 SE17      29.60F VSB 1/4
WADENA         LGT RAIN  46  45  93 S8        29.64R
DETROIT LAKES  DRZL/FOG  45  45 100 S5        29.61F VSB<1/4
MOORHEAD       FOG       46  46 100 SW3       29.59F VSB 3/4
FERGUS FALLS   FOG       50  50 100 S10       29.63F VSB 3/4
ELBOW LAKE     LGT RAIN  49  49 100 SE8       29.63S VSB 1/2
MORRIS MN      DRIZZLE   52  52 100 S5        29.62F
STAPLES        LGT RAIN  46  46 100 SE10      29.62F
WHEATON        LGT RAIN  52  50  93 SE8       29.61F
$$
  *****  WEATHER ELSEWHERE ACROSS MINNESOTA  *****

CITY           SKY/WX    TMP DP  RH WIND       PRES   REMARKS
DULUTH         LGT RAIN  42  38  85 SE9       29.75S FOG
INTRNTL FALLS  LGT RAIN  42  40  92 SE5       29.64F FOG
ELY            LGT RAIN  41  37  87 SE10      29.71F
CLOQUET        HVY RAIN  37  36  93 E5        29.75F
BRAINERD       RAIN      47  46  97 SE9       29.66F FOG
HIBBING        RAIN      42  42 100 SE7       29.71S FOG
ALEXANDRIA     LGT RAIN  49  49 100 S6        29.64R VSB 1
SAINT CLOUD    LGT RAIN  48  48 100 SE10      29.66F FOG
MINNEAPOLIS    LGT RAIN  50  47  89 SE13      29.71F FOG
$$

  *****  WEATHER ACROSS SOUTH DAKOTA  *****

CITY           SKY/WX    TMP DP  RH WIND       PRES   REMARKS
SIOUX FALLS    CLOUDY    55  50  83 W15G22    29.65F
BROOKINGS      CLOUDY    54  52  93 SW10      29.61F FOG
WATERTOWN      CLOUDY    48  48 100 W14G31    29.60F FOG
HURON          FAIR      53  43  68 N23G33    29.66F
SISSETON         N/A     53  52  96 VRB3      29.59F
ABERDEEN       PTSUNNY   47  38  71 NW17      29.66F
MITCHELL       FAIR      54  43  66 NW15      29.70R
PIERRE         FAIR      55  40  56 NW20      29.75S
MOBRIDGE       FAIR      47  38  71 NW14      29.71S
RAPID CITY     FAIR      59  17  19 NW9G22    29.82S
$$

  *****  SOME WEATHER IN NEARBY STATES *****

CITY           SKY/WX    TMP DP  RH WIND       PRES   REMARKS
GLASGOW MT     FAIR      47  29  49 W9        29.71F
GREAT FALLS MT FAIR      52  23  32 S15G22    29.59F
CHEYENNE WY    FAIR      51  15  23 W15G29    29.98R
SCOTTSBLUFF NE FAIR      58  15  18 W14G23    29.94F
OMAHA NE       LGT RAIN  61  56  83 S7        29.75R
DES MOINES IA  LGT RAIN  60  57  89 S16       29.77F FOG
DAVENPORT IA   PTSUNNY   64  52  64 SE17      29.90F
CHICAGO IL     CLOUDY    67  48  50 SE17      30.03F
EAU CLAIRE WI  RAIN      49  46  90 SE16G25   29.77F FOG
LA CROSSE WI   LGT RAIN  56  50  80 SE10      29.82F
$$

  *****  SOME NATIONAL WEATHER *****

CITY           SKY/WX    TMP DP  RH WIND       PRES   REMARKS
LA GUARDIA NY  FAIR      54  21  27 NW13      30.16F
RALEIGH NC     PTSUNNY   71  32  23 CALM      30.18F
ATLANTA GA     PTSUNNY   71  46  40 S8        30.15F
NEW ORLEANS LA CLOUDY    77  67  71 S15G21    30.04F
OKLAHOMA CITY  CLOUDY    59  54  83 S13       29.88F
ALBUQUERQUE NM FAIR      53  30  41 NW17      30.22F
SALT LAKE CITY PTSUNNY   53  34  48 S32G41    30.02F
LOS ANGELES CA CLOUDY    56  54  93 E12       30.28S FOG
BOISE ID       CLOUDY    53  39  59 S17       29.77R
SEATTLE WA     LGT RAIN  44  41  89 N14       29.49R
$$

*** WEATHER ACROSS MANITOBA...SASKATCHEWAN AND ONTARIO ***
                ***ONTARIO***

CITY           SKY/WX    TMP DP  RH WIND       PRES   REMARKS
GERALDTON      CLOUDY    41  28  60 S14G25    30.01F
THUNDER BAY    CLOUDY    37  32  81 E13       29.94F
SIOUX LOOKOUT  CLOUDY    41  34  75 SE8       29.69F
TORONTO        MOSUNNY   39  27  60 SE9       30.34R
BIG TROUT LK   CLOUDY    32  30  93 SE16G25   29.75F WCI  21
PICKLE LAKE    LGT RAIN  36  34  93 S13G18    29.77F
DRYDEN         CLOUDY    41  36  81 SE12      29.65F
KENORA         LGT RAIN  41  41 100 S13       29.59F FOG
$$
                *** MANITOBA***

CITY           SKY/WX    TMP DP  RH WIND       PRES   REMARKS
BRANDON        CLOUDY    34  30  86 W17       29.63S WCI  23
DAUPHIN        SUNNY     36  30  80 W17G24    29.60F
ISLAND LAKE    LGT RAIN  34  32  93 SE7       29.57F
PILOT MOUND      N/A     34  32  93 NW12        N/A
THE PAS        CLOUDY    28  23  80 N5        29.59F WCI  23
THOMPSON       LGT SNOW  25  21  86 NE6       29.61F VSB 3/4 WCI  18
WINNIPEG       CLOUDY    34  32  93 W14       29.60F WCI  24
LYNN LAKE      SNOW      19  19 100 E9        29.61F VSB 1/2 WCI   9
CHURCHILL      CLOUDY    14  12  92 E17       29.95F WCI  -3
GILLAM         FRZ RAIN  23  19  86 E7        29.70F WCI  15
$$
                ***SASKATCHEWAN***

CITY           SKY/WX    TMP DP  RH WIND       PRES   REMARKS
ESTEVAN        MOSUNNY   37  32  81 SW8       29.67S
KINDERSLEY     PTSUNNY   36  28  75 SW8       29.60F
LLOYDMINSTER   PTSUNNY   36  28  75 W10       29.58S
PRINCE ALBERT  CLOUDY    37  32  81 W6        29.57S
REGINA         MOSUNNY   39  34  81 W8        29.64F
YORKTON        CLOUDY    36  34  93 W8        29.61F


USA.gov is the U.S. government's official web portal to all federal, state and local government web resources and services.